Temp
10 9 9 10 10 10 9 10 10 10 10 11 12 12 12 11 11 10 10 10 10 10 11 11 11 11 12 12 13 15 14 15 15 15 15 15 14 13 14 13 14 14 14 16 16 16 17
9 9 9 9 9 9 9 9 9 9 10 11 11 12 12 12 11 11 10 10 10 10 10 11 11 11 11 10 14 14 15 15 15 14 13 14 14 13 13 13 14 14 14 14 15 16 16
8 8 9 9 8 8 8 9 8 9 9 10 11 12 12 12 12 11 10 10 10 10 10 10 10 10 10 11 13 13 14 14 14 15 13 13 14 14 13 13 14 14 14 14 14 15 16
8 8 8 8 8 8 8 8 8 8 9 9 9 11 11 12 12 11 10 10 10 10 10 10 10 10 9 12 12 13 13 14 15 15 15 15 14 13 13 14 14 15 15 14 15 15 16
8 8 8 8 8 8 8 8 8 8 8 9 9 9 11 11 12 11 10 10 10 11 11 10 10 10 9 12 12 13 13 14 14 15 15 15 14 13 13 13 13 13 12 13 15 16 16
8 8 8 8 8 7 8 7 7 7 8 8 8 8 10 11 11 11 10 10 10 10 10 10 10 9 10 12 12 12 13 14 14 13 14 14 13 13 12 11 11 13 13 14 14 15 14
8 8 8 8 8 8 8 7 7 7 8 8 8 8 9 10 11 11 10 9 9 9 9 10 10 10 12 12 13 12 12 13 13 12 11 12 11 12 13 12 12 12 12 13 14 15 14
7 7 7 7 7 7 7 7 7 6 7 8 7 7 9 10 10 10 10 9 9 10 8 9 9 10 11 12 12 12 13 12 11 10 10 11 10 11 13 13 12 12 12 12 13 14 14
7 7 7 6 6 7 7 7 7 6 6 7 7 7 8 9 10 9 9 10 11 11 9 9 9 10 10 11 11 11 12 11 10 10 11 10 12 12 12 11 11 11 10 11 11 13 13
6 7 7 7 7 7 6 7 6 6 6 6 7 7 8 9 10 9 9 10 11 11 5 9 9 9 10 11 11 13 12 11 10 10 10 10 12 11 11 10 10 10 11 12 12 11 10
7 7 7 6 6 6 7 6 5 5 5 6 6 7 7 8 9 9 10 10 11 10 6 10 9 11 11 11 12 10 12 12 10 10 10 11 10 10 11 11 11 12 12 11 12 11 10
6 6 6 6 6 6 6 6 5 5 5 5 6 7 7 7 9 10 10 10 11 6 6 10 9 10 10 11 12 11 12 13 12 12 11 11 10 11 10 11 12 12 11 11 11 12 11
6 6 5 5 6 6 6 6 6 5 4 6 6 7 7 7 8 9 10 9 8 8 11 10 10 10 11 11 12 12 11 10 11 11 10 11 10 11 11 10 11 11 10 10 11 11 11
6 5 5 5 5 5 6 6 6 5 5 6 6 7 7 7 7 8 10 8 9 10 9 10 11 10 11 11 11 12 11 11 11 11 10 10 9 10 10 11 10 10 11 11 11 11 10
5 5 5 5 5 5 6 6 6 6 5 6 6 7 7 7 7 9 10 10 10 10 10 10 10 10 10 10 11 11 11 11 12 10 10 10 8 10 10 11 13 10 10 11 12 13 11
6 5 5 5 5 5 6 6 6 6 6 6 6 7 6 7 7 9 10 9 10 11 10 11 10 11 11 11 10 11 10 11 11 11 10 10 10 10 10 10 11 11 11 11 10 10 10
5 5 5 5 5 5 6 6 6 6 6 5 6 6 7 9 8 8 9 9 10 11 12 11 11 11 13 12 11 11 10 11 10 10 10 10 9 9 10 10 11 10 10 10 10 11 10
5 5 5 5 5 5 5 6 5 6 5 6 7 7 8 8 8 8 10 10 11 11 11 12 12 13 12 11 11 10 9 10 10 10 10 10 10 9 9 10 12 12 11 11 11 9 9
4 5 5 5 5 5 5 5 5 5 6 5 7 8 8 8 9 9 10 11 11 11 11 11 11 12 13 11 10 9 9 11 10 10 10 11 10 10 10 10 11 10 11 12 12 11 9
4 4 5 5 5 5 5 5 5 5 5 5 7 8 8 7 9 10 10 11 11 11 12 13 12 12 12 12 11 11 10 12 10 11 12 12 10 10 11 11 10 10 10 11 10 10 11
4 5 5 5 5 5 5 5 5 5 5 6 8 7 7 7 8 10 11 11 11 11 12 12 12 12 11 11 11 10 10 11 11 12 12 10 10 10 10 11 10 10 10 10 10 11 11
4 5 5 5 5 5 5 5 5 5 5 6 8 9 8 8 10 10 10 10 10 11 12 11 11 12 12 12 12 12 12 11 12 12 11 10 10 9 10 10 10 11 10 11 11 12 12
4 4 5 5 5 5 5 5 5 5 5 5 5 7 9 10 10 10 10 10 11 12 12 12 11 12 11 13 13 13 13 12 13 12 10 10 9 10 12 10 11 11 11 11 12 12 13
4 4 5 5 5 5 5 5 5 5 5 6 6 7 9 10 11 11 11 11 11 12 12 12 12 12 13 13 13 12 12 11 11 12 12 9 9 10 11 11 14 13 13 13 12 13 13
4 4 4 5 4 4 5 5 5 5 5 5 6 7 10 10 12 11 12 11 11 11 11 11 12 12 13 13 12 12 12 12 12 11 11 11 9 11 12 13 14 13 13 13 12 12 14
4 4 4 4 4 4 4 5 5 5 5 5 6 7 8 10 10 13 12 10 10 10 11 11 10 9 12 12 12 12 12 13 11 11 10 10 11 11 12 13 13 14 13 13 14 14 13
4 4 4 4 4 4 4 4 5 5 5 4 5 6 8 10 10 12 11 11 11 10 10 10 10 10 10 11 11 12 12 12 11 11 12 11 11 11 12 13 12 13 13 12 14 16 12
4 4 4 4 4 4 4 4 4 5 5 4 5 7 8 9 10 11 11 9 9 9 10 9 10 10 10 11 11 11 12 10 11 11 11 11 11 13 13 12 13 14 13 14 14 12 11
4 4 4 4 4 4 4 4 4 4 5 5 5 6 7 8 9 9 11 11 11 11 10 10 11 11 11 11 11 12 12 9 10 11 10 11 12 12 11 12 13 13 13 13 11 11 10
Height
804 800 796 792 788 783 780 776 772 768 765 765 764 764 765 766 766 768 770 770 771 771 772 773 773 772 773 773 768 763 763 763 764 768 771 774 780 781 784 783 780 782 779 775 773 773 772
804 801 796 792 788 784 779 775 771 768 763 759 760 760 761 761 763 765 767 768 769 770 770 772 773 773 773 777 763 763 764 764 764 767 771 773 775 778 781 782 782 776 776 777 773 771 770
804 800 796 792 788 783 779 774 770 766 762 757 756 756 757 757 759 761 764 765 767 767 769 771 773 773 773 766 762 763 764 765 766 768 771 772 774 777 778 780 775 775 778 775 772 769 768
802 799 795 791 786 782 778 773 769 764 760 755 751 750 752 754 755 756 760 763 765 766 768 770 772 773 771 760 760 761 763 764 766 767 769 770 772 776 777 775 775 774 774 779 768 764 763
800 797 793 789 784 780 776 772 767 762 758 753 749 747 746 749 751 753 757 761 763 764 766 769 772 773 768 759 758 758 761 764 765 766 769 771 772 775 776 781 780 775 782 777 774 760 762
800 795 791 786 782 778 774 769 765 759 755 749 746 743 741 743 747 750 754 760 762 764 767 769 770 775 761 757 755 757 759 763 765 767 771 773 773 776 779 782 789 776 774 770 772 764 766
800 794 789 784 780 775 770 766 761 756 751 747 743 740 736 738 742 745 751 759 765 768 764 759 759 758 754 756 755 757 758 762 765 770 776 775 779 772 772 774 773 775 779 776 769 764 767
798 793 788 783 778 772 767 762 757 752 747 743 740 735 732 732 735 738 745 748 752 755 761 756 756 757 755 756 757 757 759 764 768 775 776 778 778 772 769 770 774 775 776 774 771 768 767
794 790 784 780 775 769 763 757 752 747 741 737 735 731 727 726 725 731 737 745 747 751 758 752 750 753 754 757 757 757 759 763 768 776 773 775 765 762 770 775 775 777 780 781 781 771 764
792 786 781 776 770 765 759 753 748 743 737 732 729 725 723 722 720 722 732 742 747 749 779 754 751 748 750 753 755 750 754 760 767 770 774 772 763 765 772 775 778 777 772 771 773 778 780
788 783 777 772 767 761 755 749 743 738 731 726 723 719 717 717 709 712 722 734 745 750 791 748 749 745 746 749 747 753 752 756 766 768 768 763 765 767 767 765 771 767 766 770 770 772 777
784 779 774 768 763 757 750 744 738 733 727 721 715 712 712 713 708 706 718 735 743 776 786 744 745 743 747 747 744 751 752 755 758 759 758 759 762 763 764 761 764 764 770 770 770 767 761
781 776 770 764 759 753 746 740 734 728 720 712 708 706 707 710 708 705 714 730 753 762 736 741 739 740 738 743 745 747 753 757 756 759 758 757 758 759 760 765 764 766 773 771 762 760 749
778 772 766 760 754 749 742 735 730 723 714 706 700 701 703 705 710 701 711 730 736 727 737 731 734 739 741 742 744 745 749 749 750 755 759 756 761 753 752 750 756 760 760 761 758 756 758
774 769 763 757 751 745 738 732 725 718 710 701 696 695 699 700 705 700 706 718 717 721 721 730 736 739 742 744 745 748 746 742 738 750 756 753 761 744 744 745 745 754 758 745 746 737 747
771 766 759 753 747 742 736 729 722 714 706 698 695 692 692 697 699 705 701 712 714 710 717 721 726 727 734 737 744 742 742 734 736 737 746 751 750 742 740 745 745 745 745 747 751 746 747
769 763 756 750 745 739 733 726 719 712 704 695 695 692 693 697 703 708 706 709 710 708 708 718 720 725 720 728 733 736 739 733 732 736 741 745 754 749 743 738 732 743 744 746 742 736 741
766 760 754 747 742 736 731 724 717 710 702 695 692 694 690 695 704 709 703 705 703 709 710 711 713 712 718 728 733 742 739 734 730 735 743 740 744 746 737 728 723 722 725 729 732 742 737
764 758 751 745 740 735 729 723 716 707 702 697 687 684 689 694 696 699 699 701 702 707 712 712 715 714 715 724 735 736 733 722 728 731 733 735 737 732 729 728 722 722 719 716 719 722 728
761 755 749 744 738 733 727 721 715 708 700 702 692 685 688 700 696 697 701 703 705 706 707 707 710 714 717 719 723 725 729 718 721 724 723 727 728 726 718 711 718 715 718 715 719 717 708
760 753 747 742 737 732 727 720 713 703 695 691 683 687 690 697 697 694 696 700 704 710 706 708 710 712 716 717 721 723 722 718 720 719 722 728 720 720 708 702 709 704 706 710 711 706 707
758 752 746 740 735 731 727 722 713 703 692 686 681 680 690 692 691 697 698 702 706 710 706 708 711 708 711 711 710 713 710 714 712 716 721 721 713 712 698 696 695 691 693 691 690 693 694
756 751 744 739 734 729 724 718 712 704 697 693 691 686 684 686 688 693 697 701 702 699 702 703 705 708 710 705 705 705 705 706 706 709 715 716 715 704 681 687 679 682 671 675 676 680 682
754 749 743 738 734 730 725 719 713 707 702 698 693 690 681 685 684 687 692 698 699 698 701 702 701 706 702 702 700 700 703 705 703 699 699 710 713 707 690 680 659 657 651 655 661 665 670
752 748 743 737 732 728 724 720 716 709 702 695 689 687 679 683 683 690 690 697 698 698 702 702 700 700 699 702 703 698 699 698 692 692 696 697 710 701 683 669 659 654 653 655 663 661 659
750 745 741 736 732 728 722 718 713 707 700 691 682 682 681 680 685 681 689 695 697 699 701 699 700 700 700 703 700 694 698 691 699 693 697 700 699 704 692 676 668 659 655 654 654 655 644
749 743 739 735 730 725 723 716 709 705 700 693 685 684 681 678 680 681 688 691 693 698 698 699 699 702 702 698 697 695 695 693 701 697 690 699 699 699 693 681 675 660 656 658 657 652 646
747 742 737 733 729 725 719 715 710 705 700 696 689 686 684 681 682 681 683 690 694 696 698 699 699 698 699 695 692 693 692 697 696 693 692 690 693 684 682 683 679 658 662 660 655 650 651
746 740 736 732 728 724 721 716 712 708 703 697 691 684 683 684 682 682 682 683 685 686 690 695 694 694 692 688 689 685 686 701 695 690 687 690 679 681 684 676 663 660 658 654 655 654 653
Wind_Speed
26 26 26 27 27 27 28 27 28 31 26 23 21 19 21 17 12 12 12 9 7 5 5 5 4 3 3 3 6 1 1 2 8 20 13 6 4 3 3 3 0 5 3 4 5 7 6
26 27 27 28 28 28 28 29 27 29 29 20 22 21 21 20 15 13 13 11 8 6 5 4 4 3 2 4 5 7 3 3 9 17 10 8 4 5 2 4 3 1 2 5 6 5 6
26 28 28 28 28 29 29 29 30 29 28 29 21 23 22 22 17 13 13 11 9 8 7 5 3 2 1 10 3 4 3 2 4 10 5 9 8 3 3 3 2 3 5 6 6 6 7
27 28 29 30 28 28 29 30 31 31 29 27 27 23 23 23 20 15 13 12 9 8 8 6 4 2 6 5 5 13 8 2 6 6 2 5 8 4 3 4 4 3 3 2 5 6 6
26 28 30 31 31 31 30 31 32 30 30 28 26 24 22 21 23 17 13 12 8 6 6 7 4 3 7 3 4 8 7 5 7 7 5 3 6 4 2 3 3 5 4 4 5 2 4
27 29 29 31 32 32 33 32 31 30 29 29 26 26 19 20 24 19 14 12 8 5 5 6 0 2 3 2 3 3 7 8 3 5 3 3 3 3 3 4 5 4 4 3 5 3 4
27 28 30 32 33 34 34 31 31 30 29 27 26 26 22 19 23 23 20 12 4 0 6 7 5 3 1 1 3 3 5 8 4 4 5 2 4 9 10 7 5 3 3 9 7 10 11
26 28 29 30 32 34 34 30 31 30 30 25 25 28 23 20 23 28 29 7 6 4 3 13 5 6 6 3 2 1 11 5 4 5 4 1 10 8 3 5 7 6 10 12 9 11 9
26 30 31 31 31 33 35 31 32 33 34 25 25 29 22 22 22 35 31 13 15 5 1 4 7 6 3 5 3 6 9 4 4 6 8 10 4 5 8 5 6 6 9 6 10 9 12
29 31 32 31 32 34 34 32 29 33 33 24 26 30 21 21 21 31 17 20 13 7 4 4 4 5 5 5 5 11 14 6 3 10 6 9 9 9 5 4 7 13 7 11 10 4 5
30 32 32 30 32 32 33 30 32 31 32 30 29 27 22 16 12 19 19 29 14 5 2 3 4 3 7 11 3 1 8 3 7 7 6 4 3 6 13 16 7 4 6 8 9 7 6
31 31 32 30 31 32 34 30 32 29 34 36 34 22 15 20 13 28 33 31 14 5 6 5 4 6 8 6 2 3 5 2 2 6 9 7 3 4 5 3 11 2 4 6 4 4 9
31 31 32 30 31 32 32 32 31 34 37 34 25 16 11 17 8 38 48 12 5 4 1 6 5 6 7 6 5 5 8 9 6 4 6 4 16 2 3 3 4 7 5 2 4 6 8
32 32 31 30 30 30 31 31 29 33 36 31 20 10 8 16 20 51 36 4 4 6 5 4 5 8 6 6 4 6 8 8 14 3 1 5 5 12 11 15 6 10 9 4 5 3 4
33 32 31 31 30 30 30 30 30 34 38 29 15 8 7 12 20 42 14 4 8 6 6 8 11 6 7 5 3 6 8 6 8 14 7 4 5 1 5 5 11 5 10 13 7 7 4
34 33 31 31 28 28 30 31 31 35 36 25 12 4 6 7 19 20 9 5 5 5 6 4 5 5 5 8 7 8 7 4 9 15 9 2 6 4 2 6 11 8 2 4 6 6 6
34 34 31 31 27 27 29 30 31 34 34 28 3 1 10 14 22 5 5 4 4 4 7 5 5 4 4 5 7 5 4 4 7 4 16 7 4 1 2 9 13 7 8 6 2 3 3
34 32 30 31 26 27 28 28 30 32 29 21 1 3 18 31 9 3 5 6 4 4 2 2 3 3 7 8 6 4 8 6 5 9 8 9 3 5 12 6 11 14 13 16 7 6 4
33 32 31 30 26 27 28 29 30 32 23 13 4 1 20 29 4 5 3 4 3 4 5 5 5 4 5 6 3 7 4 6 9 10 10 9 5 3 4 0 2 9 12 15 14 3 9
33 32 30 30 26 25 27 30 31 32 25 13 3 2 4 6 0 8 9 5 4 1 3 2 2 4 4 7 8 2 4 4 12 9 10 13 5 7 9 3 3 5 9 15 14 9 16
31 31 30 28 26 25 27 30 32 35 32 14 2 2 1 6 4 9 6 7 8 3 3 4 2 8 5 4 5 7 8 4 5 9 6 6 7 10 20 22 15 11 11 16 20 20 11
30 30 29 28 26 27 27 28 32 35 31 4 1 2 2 8 8 11 6 6 11 7 6 5 7 6 9 6 6 4 4 5 5 9 10 7 6 5 12 15 17 15 20 20 20 22 21
29 29 29 27 25 27 27 29 31 32 26 4 5 5 2 12 7 9 9 6 8 9 6 7 11 7 8 11 13 13 7 5 3 7 10 3 3 3 8 2 10 10 23 22 18 15 17
28 27 27 26 25 26 26 28 30 31 27 12 8 6 1 5 10 10 12 13 6 7 6 2 7 8 2 2 4 3 5 9 9 11 10 5 3 2 6 7 3 3 9 20 24 12 19
29 27 25 25 27 25 24 25 27 29 28 22 11 4 1 4 8 9 7 7 8 3 3 6 8 5 4 2 3 3 2 4 6 11 12 10 3 3 4 5 5 2 2 3 13 11 16
29 27 25 24 23 23 25 25 26 29 29 30 15 4 2 4 8 6 9 5 3 2 1 4 1 2 4 2 3 3 3 1 4 4 2 6 1 0 4 4 4 3 0 4 6 4 17
28 26 25 24 24 25 23 25 28 28 28 30 10 10 4 2 1 7 6 6 4 3 1 0 2 1 3 3 3 4 3 4 2 3 3 3 2 6 6 4 6 2 3 5 2 5 5
26 25 24 22 23 24 24 25 25 27 28 28 15 12 4 2 1 2 5 5 3 3 4 3 1 3 3 4 4 4 4 4 2 4 5 6 5 3 4 3 4 2 4 2 3 4 3
26 22 23 23 21 22 22 23 24 24 24 26 9 20 13 1 2 1 2 2 3 5 4 3 1 1 3 3 2 1 2 2 3 3 1 3 5 3 6 5 3 2 4 4 3 3 1
Wind_Direction
359 355 351 349 347 344 340 335 332 334 334 278 274 267 243 242 246 240 247 249 256 258 273 277 276 230 168 250 255 240 360 181 208 204 187 177 175 164 200 212 23 205 225 279 282 287 277
353 351 348 347 346 344 341 340 335 330 328 293 273 267 252 239 236 230 235 243 239 240 244 266 265 217 132 236 246 250 209 75 154 176 171 171 204 213 240 225 181 239 265 262 264 271 260
355 352 347 343 344 338 335 332 334 336 330 329 280 270 257 240 233 222 227 234 227 228 229 241 256 217 257 243 189 205 184 187 135 173 153 193 170 172 154 247 242 251 293 289 229 223 239
351 349 348 344 337 336 334 334 330 329 330 321 319 281 262 248 232 215 217 224 224 222 226 212 222 193 246 246 262 233 254 220 215 202 189 166 189 195 210 330 341 287 214 318 303 219 238
349 347 345 343 338 335 330 328 327 324 324 326 321 320 269 256 231 210 206 210 219 226 221 203 178 179 260 282 214 230 185 168 182 196 215 157 147 188 144 174 297 194 242 237 315 251 260
346 344 341 340 337 334 330 328 322 319 319 320 322 313 306 256 229 204 190 194 194 179 164 157 201 288 239 241 181 151 172 163 131 129 116 170 196 207 156 173 223 208 231 216 239 323 357
341 342 340 338 336 332 327 326 321 321 316 313 317 318 305 260 229 196 166 135 77 184 212 198 192 247 117 173 134 103 142 127 91 94 174 154 208 213 212 214 254 293 263 272 267 302 305
338 337 335 333 332 330 326 322 321 322 315 305 322 322 293 274 234 189 172 162 179 160 218 240 237 263 261 23 119 121 155 137 145 178 120 194 244 233 253 216 235 243 268 274 284 264 267
335 334 330 331 328 326 323 317 321 319 320 312 308 323 298 288 246 172 174 173 146 129 112 271 213 218 190 163 240 193 159 134 150 163 186 220 202 198 189 202 228 229 235 255 260 291 281
332 330 330 329 326 326 321 316 321 321 323 317 311 314 291 299 197 162 169 165 141 118 51 247 198 245 165 142 261 191 177 143 173 198 173 246 234 232 189 206 193 258 196 234 250 254 256
330 330 329 326 323 324 323 321 321 324 324 326 310 307 281 246 170 160 168 167 159 79 11 141 155 150 161 164 144 229 168 147 165 183 166 221 182 217 230 229 177 247 188 214 234 241 279
327 325 326 327 322 323 323 322 324 326 326 316 309 296 268 281 237 162 152 156 130 61 252 159 132 171 154 198 177 108 162 271 19 211 239 230 195 190 215 253 206 203 216 246 246 253 251
330 329 326 324 322 324 325 327 330 328 319 314 307 285 241 234 307 152 145 145 98 168 42 171 173 171 186 164 200 159 185 188 194 200 215 245 235 191 207 198 177 185 209 240 223 205 241
332 330 328 325 322 326 326 329 327 323 324 327 311 255 211 225 284 150 143 126 141 180 181 108 139 152 178 161 206 195 179 213 213 176 307 221 293 191 189 209 182 187 185 204 222 228 268
333 330 330 328 325 329 330 328 327 330 333 334 335 248 186 223 248 155 153 185 185 182 154 139 144 159 194 193 186 176 224 226 211 184 204 208 262 144 204 180 193 173 209 222 275 268 289
335 333 331 330 328 331 332 330 330 329 333 339 328 190 148 219 218 185 151 173 150 143 122 154 149 178 160 180 182 191 191 216 214 185 188 243 277 209 195 160 251 204 160 197 196 196 228
332 332 333 332 332 331 332 331 330 332 343 344 243 146 176 164 167 180 178 161 147 153 128 146 176 148 171 166 181 196 229 257 203 194 177 168 230 314 174 206 192 184 220 216 297 227 217
333 335 334 334 334 332 333 330 332 335 346 344 321 166 169 154 178 197 163 149 132 135 98 117 119 165 180 167 197 214 226 230 164 142 183 198 222 227 224 232 215 217 211 212 222 224 236
335 334 334 336 335 335 335 333 335 337 347 335 295 153 151 163 153 167 137 116 118 126 169 169 188 203 165 158 209 201 207 243 172 172 173 164 216 270 281 224 189 217 223 215 227 256 224
339 334 336 337 336 337 338 336 336 337 339 331 259 177 121 189 40 168 152 154 109 346 121 155 160 145 158 206 219 240 240 266 183 187 188 178 218 207 247 237 180 210 210 213 216 232 238
340 337 338 340 341 343 342 338 337 340 339 318 240 160 111 170 212 160 126 153 178 160 206 194 218 218 168 224 206 228 223 274 153 200 187 194 256 233 243 247 235 217 204 213 219 226 222
340 337 337 342 342 344 345 340 342 348 343 331 247 104 146 149 153 154 180 162 175 209 203 188 223 200 220 232 213 192 233 189 191 189 191 208 257 245 263 246 231 226 221 223 224 226 232
341 339 337 344 342 344 345 341 346 348 1 19 335 275 210 165 158 161 187 185 211 179 198 239 206 225 254 252 240 255 234 276 256 179 213 233 260 257 277 350 284 239 234 219 223 221 212
339 338 339 341 341 344 344 344 343 348 356 342 291 249 203 165 185 183 159 204 200 202 213 210 209 196 199 81 303 290 227 248 249 236 186 201 206 250 286 305 238 274 288 216 215 217 217
339 339 338 339 338 343 342 342 340 346 352 344 313 266 235 131 177 174 165 187 225 235 214 254 263 223 133 51 279 226 170 268 239 225 203 198 146 296 286 302 279 17 351 103 173 239 226
336 337 338 336 338 339 340 340 340 347 353 350 338 249 288 121 210 160 184 162 147 156 254 217 58 10 118 238 213 231 220 171 305 322 359 195 221 279 323 307 343 316 334 83 88 272 193
335 334 336 336 335 338 341 341 341 348 353 352 299 327 307 91 338 144 173 191 146 162 223 258 185 124 160 204 199 228 244 165 227 215 191 166 184 226 259 282 287 275 199 122 38 298 1
333 330 334 334 335 337 338 341 341 346 351 355 301 0 306 81 246 146 143 142 125 169 170 175 69 189 182 222 193 191 206 221 199 212 188 182 174 206 210 250 314 61 74 233 239 303 350
338 333 332 332 333 334 336 337 340 341 347 352 325 340 344 213 177 98 128 137 196 190 148 178 195 144 231 229 206 185 210 142 189 264 118 225 196 189 185 221 259 258 257 301 295 283 180